This demonstration page uses our WeatherBlox Daily Observations layout. Learn more.

Left ArrowRight Arrow

Hourly Observations for July 22, 2018

Temp ( °F °C ) Dew Point ( °F °C ) Humidity (%) Winds ( mph kmh ) Pressure ( in mb ) Visibility ( mi km ) Precip ( " mm )
12:53 am 00:53 Clear 82 27.8 62 16.7 51 51 Calm 29.92 1013 10 16 0.00 0.00
1:53 am 01:53 Clear 79 26.1 62 16.7 56 56 Calm 29.93 1014 10 16 0.00 0.00
2:53 am 02:53 Clear 79 26.1 60 15.6 52 52 Calm 29.93 1014 10 16 0.00 0.00
3:53 am 03:53 Clear 80 26.7 60 15.6 51 51 SW 3 6 29.94 1014 10 16 0.00 0.00
4:53 am 04:53 Clear 77 25 60 15.6 56 56 Calm 29.95 1014 10 16 0.00 0.00
5:53 am 05:53 Clear 75 23.9 60 15.6 60 60 Calm 29.97 1015 10 16 0.00 0.00
6:53 am 06:53 Sunny 76 24.4 60 15.6 58 58 Calm 29.99 1016 10 16 0.00 0.00
7:53 am 07:53 Sunny 79 26.1 60 15.6 52 52 VRB 3 6 30.00 1016 10 16 0.00 0.00
8:53 am 08:53 Sunny 82 27.8 58 14.4 44 44 Calm 30.01 1016 10 16 0.00 0.00
9:53 am 09:53 Sunny 86 30 58 14.4 39 39 SSE 7 11 30.00 1016 10 16 0.00 0.00
10:53 am 10:53 Sunny 89 31.7 58 14.4 35 35 SSE 5 7 30.00 1016 10 16 0.00 0.00
11:53 am 11:53 Sunny 93 33.9 59 15 32 32 Calm 29.99 1016 10 16 0.00 0.00
12:53 pm 12:53 Sunny 96 35.6 59 15 29 29 Calm 29.97 1015 10 16 0.00 0.00
1:53 pm 13:53 Sunny 99 37.2 59 15 27 27 VRB 3 6 29.96 1014 10 16 0.00 0.00
2:53 pm 14:53 Sunny 100 37.8 59 15 26 26 undefined N/A 29.93 1014 10 16 0.00 0.00
3:53 pm 15:53 Sunny 102 38.9 58 14.4 23 23 S 13 20 29.91 1013 10 16 0.00 0.00
4:53 pm 16:53 Sunny 102 38.9 58 14.4 23 23 ESE 9 15 29.89 1012 10 16 0.00 0.00
5:53 pm 17:53 Sunny 103 39.4 58 14.4 23 23 SE 10 17 29.87 1012 10 16 0.00 0.00
6:53 pm 18:53 Sunny 101 38.3 58 14.4 24 24 SSE 13 20 29.87 1011 10 16 0.00 0.00
7:53 pm 19:53 Sunny 97 36.1 63 17.2 33 33 SSE 10 17 29.89 1012 10 16 0.00 0.00
8:53 pm 20:53 Clear 92 33.3 64 17.8 40 40 SSE 10 17 29.92 1013 10 16 0.00 0.00
9:53 pm 21:53 Clear 90 32.2 66 18.9 45 45 S 6 9 29.95 1014 10 16 0.00 0.00
10:53 pm 22:53 Clear 89 31.7 66 18.9 47 47 Calm 29.96 1015 10 16 0.00 0.00
11:53 pm 23:53 Clear 86 30 67 19.4 53 53 Calm 29.97 1015 10 16 0.00 0.00

Powered by AerisWeather